Regional Weather Roundup
Issued by NWS Newport/Morehead, NC

Current Version | Previous Version | Graphics & Text | Print | Product List | Glossary Off
Versions: 1 2 3 4 5 6 7 8 9 10 11 12 13 14 15 16 17 18 19 20 21 22 23 24 25 26 27 28 29 30 31 32 33 34 35 36 37 38 39 40 41 42 43 44 45 46 47 48 49 50

000
ASUS42 KMHX 220710
RWRMHX
WEATHER ROUNDUP FOR EASTERN NORTH CAROLINA
NATIONAL WEATHER SERVICE NEWPORT/MOREHEAD CITY NC
200 AM EST MON DEC 22 2014

NOTE: "FAIR" INDICATES FEW OR NO CLOUDS BELOW 12,000 FEET
WITH NO SIGNIFICANT WEATHER AND/OR OBSTRUCTIONS TO VISIBILITY

NCZ015>017-031-032-045>047-102-103-220800-
NORTH COAST

CITY           SKY/WX    TMP DP  RH WIND       PRES   REMARKS
EDENTON        CLOUDY    42  37  82 NE7       30.21S
ELIZABETH CITY CLOUDY    48  39  71 NE15      30.21F
KITTY HAWK     CLOUDY    48  44  85 NE10G18   30.18F
MANTEO         CLOUDY    48  44  85 NE17      30.19S

$$

NCZ045>047-081-094-103-104-220800-
CENTRAL COAST

CITY           SKY/WX    TMP DP  RH WIND       PRES   REMARKS
FRISCO         LGT RAIN  49  49 100 NE12      30.15F FOG
SWANQUARTER      N/A     46 N/A N/A NE7G17    30.12S

$$

NCZ095-097-098-100-101-220800-
SOUTHERN COAST

CITY           SKY/WX    TMP DP  RH WIND       PRES   REMARKS
BEAUFORT       LGT RAIN  47  46  97 NE13G20   30.12F
CEDAR ISLAND     N/A     46 N/A N/A NE20G26   30.18S
JACKSONVILLE   LGT RAIN  45  43  93 E15       30.11F
PINEY ISLAND   LGT RAIN N/A N/A N/A MISG      30.13F
WILMINGTON     LGT RAIN  45  44  97 E9        30.08F FOG


$$

NCZ011>013-027>030-043-044-078>080-089-090>093-098-220800-
COASTAL PLAIN

CITY           SKY/WX    TMP DP  RH WIND       PRES   REMARKS
AHOSKIE        LGT RAIN  37  33  82 NE9       30.23F
CLINTON        RAIN      41  41  99 NE9       30.13F
ELIZABETHTOWN  DRIZZLE   42  42 100 N5        30.12S
GOLDSBORO      LGT RAIN  40  39  98 N9        30.15S
GREENVILLE     DRIZZLE   39  37  93 NE7       30.19F
HAVELOCK       CLOUDY    45  43  93 NE12      30.14F
KENANSVILLE    LGT RAIN  41  40  98 N5        30.15S
KINSTON        LGT RAIN  41  38  89 N9        30.17S
NEW BERN       CLOUDY    46  41  82 NE10      30.15F
RICHLANDS      CLOUDY    43  37  81 NE12      30.13F
ROCKY MOUNT    LGT RAIN  39  34  82 N12       30.21S
WASHINGTON     CLOUDY    42  37  84 NE9       30.18S
WHITEVILLE     CLOUDY    43  42  95 N3        30.10R FOG

$$

AMZ130-135-150-152-154-156-158-170-250-252-270-ANZ085-086-088-633-658-670-220800-
MARINE OBSERVATIONS

STATION/POSITION TIME  TEMP    WIND        PRES    WAVE   SWELL
                       AIR SEA DIR/SP/G            HT/PER HT/PER
                 (UTC) (F)     (DEG/KT/KT) (MB)    (FT/S) (FT/S)
CHESAPEAKE LIGHT 0600   44      50/ 16/ 18 1025.1
64 E VA BEACH    0700   50 54   40/ 19/ 21 1022.7    3/ 4   2/10
DUCK             0700   48 46   40/ 18/ 21 1022.0
2 E DUCK         0700      46                N/A     4/ 5
10 NE DUCK       0700      51                N/A     4/ 5
OREGON INLET     0700   49 48   20/ 13/ 15 1021.8
13E OREGON INLT  0700      52                N/A     4/ 5
HATTERAS CG      0700   48 49   20/ 12/ 17 1021.1
DIAMOND BUOY     0700   62                 1020.0
17 S OCRACOKE    NOT AVBL
CAPE LOOKOUT     0600   47      10/ 14/ 18 1020.2
BEAUFORT LAB     0700   47 50   30/ 10/ 13 1019.1
30 SE NEW RIVER  0700   53 60   40/ 23/ 29 1018.6    6/ 6   2/10
5 SE WRIGHTSVLE  NOT AVBL
225 S CAPE HAT   0553   71 72  140/  8/  8 1018.5    6/ 7   5/ 7
41 SE CHARLESTON 0700   71 72   70/ 12/ 14 1016.0    8/ 7   7/ 7

$$



USA.gov is the U.S. government's official web portal to all federal, state and local government web resources and services.